Cumberland, WV

5:37 PM EST on December 05, 2019 (GMT -0500)
Greater Cumberland Regional

Weather History for KCBE - November, 2019

Change the Weather History Date:

Sunday, November 17, 2019

  Actual Average (KMRB) Record (KMRB)
Temperature  
Mean Temperature 32 °F -  
Max Temperature 41 °F 54 °F 76 °F (1927)
Min Temperature 24 °F 32 °F 13 °F (1933)
Degree Days  
Heating Degree Days 32    
Moisture  
Dew Point 22 °F    
Average Humidity 61    
Maximum Humidity 70    
Minimum Humidity 45    
Precipitation  
Precipitation 0.00 in - - ()
Sea Level Pressure  
Sea Level Pressure 30.23 in    
Wind  
Wind Speed 1 mph ()    
Max Wind Speed 9 mph    
Max Gust Speed -    
Visibility 9.8 miles    
Events      
Averages and records for this station are not official NWS values.
T = Trace of Precipitation, MM = Missing Value Source: Averaged Metar Reports

Daily Weather History Graph

Daily Weather History Graph

Search for Another Location

Airport or City:

Astronomy

Nov. 17, 2019 Rise Set
Actual Time 7:01 AM EST 4:58 PM EST
Civil Twilight 6:32 AM EST 5:27 PM EST
Nautical Twilight 5:59 AM EST 5:59 PM EST
Astronomical Twilight 5:27 AM EST 6:31 PM EST
Moon 9:33 PM EST (11/17) 11:45 AM EST (11/17)
Length of Visible Light 10h 54m
Length of Day
9h 56m
Waning Gibbous, 73% of the Moon is Illuminated
Nov 17
Waning Gibbous
Nov 19
Last Quarter
Nov 26
New
Dec 4
First Quarter
Dec 12
Full

Hourly Weather History & Observations

Time (EST) Temp. Windchill Dew Point Humidity Pressure Visibility Wind Dir Wind Speed Gust Speed Precip Events Conditions
12:10 AM 27.0 °F - 8.1 °F 45% 30.39 in 7.0 mi Calm Calm - N/A   Haze
12:30 AM 25.3 °F - 9.3 °F 51% 30.39 in 10.0 mi Calm Calm - N/A   Clear
12:50 AM 25.7 °F - 10.0 °F 52% 30.38 in 7.0 mi Calm Calm - N/A   Scattered Clouds
1:10 AM 24.8 °F - 12.2 °F 59% 30.38 in 10.0 mi Calm Calm - N/A   Mostly Cloudy
1:30 AM 26.1 °F - 14.5 °F 62% 30.38 in 10.0 mi Calm Calm - N/A   Overcast
1:50 AM 25.7 °F - 17.2 °F 70% 30.38 in 10.0 mi Calm Calm - N/A   Overcast
2:10 AM 27.0 °F - 13.6 °F 57% 30.37 in 10.0 mi North - - N/A   Overcast
2:30 AM 26.8 °F - 14.7 °F 60% 30.37 in 10.0 mi North - - N/A   Overcast
2:50 AM 27.5 °F - 15.8 °F 61% 30.36 in 5.0 mi North - - N/A   Haze
3:10 AM 27.5 °F - 13.6 °F 56% 30.36 in 7.0 mi North - - N/A   Overcast
3:30 AM 27.3 °F - 17.1 °F 65% 30.35 in 10.0 mi North - - N/A   Overcast
3:50 AM 27.7 °F - 16.3 °F 62% 30.35 in 10.0 mi North - - N/A   Overcast
4:10 AM 28.2 °F - 15.3 °F 58% 30.35 in 10.0 mi Calm Calm - N/A   Overcast
4:30 AM 28.0 °F - 18.3 °F 67% 30.35 in 10.0 mi Calm Calm - N/A   Overcast
4:50 AM 28.4 °F - 16.2 °F 60% 30.35 in 10.0 mi Calm Calm - N/A   Overcast
5:10 AM 28.4 °F - 15.1 °F 57% 30.35 in 10.0 mi Calm Calm - N/A   Overcast
5:30 AM 28.6 °F - 15.4 °F 58% 30.35 in 10.0 mi Calm Calm - N/A   Overcast
5:50 AM 28.2 °F - 16.7 °F 62% 30.34 in 10.0 mi Calm Calm - N/A   Overcast
6:10 AM 28.2 °F - 17.2 °F 63% 30.34 in 10.0 mi Calm Calm - N/A   Overcast
6:30 AM 28.4 °F - 16.7 °F 62% 30.34 in 10.0 mi Calm Calm - N/A   Overcast
6:50 AM 27.9 °F - 18.5 °F 68% 30.33 in 10.0 mi North - - N/A   Overcast
7:10 AM 27.5 °F - 18.3 °F 68% 30.33 in 10.0 mi Calm Calm - N/A   Overcast
7:50 AM 29.7 °F - 18.3 °F 63% 30.33 in 10.0 mi Calm Calm - N/A   Overcast
8:10 AM 30.2 °F - 17.4 °F 59% 30.33 in 10.0 mi Calm Calm - N/A   Overcast
8:30 AM 31.6 °F - 16.9 °F 54% 30.32 in 10.0 mi Calm Calm - N/A   Overcast
8:50 AM 33.1 °F 30.0 °F 18.0 °F 54% 30.32 in 10.0 mi SSE 3.5 mph - N/A   Overcast
9:10 AM 33.6 °F 30.6 °F 17.2 °F 51% 30.32 in 10.0 mi South 3.5 mph - N/A   Overcast
9:30 AM 34.2 °F 29.0 °F 17.1 °F 50% 30.32 in 10.0 mi SSE 5.8 mph - N/A   Overcast
9:50 AM 34.7 °F - 18.1 °F 51% 30.31 in 10.0 mi Calm Calm - N/A   Overcast
10:10 AM 35.8 °F 30.9 °F 20.1 °F 53% 30.30 in 10.0 mi SSW 5.8 mph - N/A   Overcast
10:50 AM 36.0 °F 32.1 °F 19.8 °F 52% 30.29 in 10.0 mi SSW 4.6 mph - N/A   Overcast
11:10 AM 37.2 °F 33.6 °F 21.0 °F 52% 30.27 in 10.0 mi South 4.6 mph - N/A   Overcast
11:30 AM 37.8 °F - 21.6 °F 52% 30.26 in 10.0 mi Calm Calm - N/A   Overcast
12:10 PM 39.2 °F 33.6 °F 24.1 °F 55% 30.24 in 10.0 mi SSW 8.1 mph - N/A   Overcast
12:30 PM 39.7 °F 34.3 °F 24.4 °F 54% 30.23 in 10.0 mi South 8.1 mph - N/A   Overcast
12:50 PM 40.1 °F 36.1 °F 27.1 °F 60% 30.21 in 10.0 mi ESE 5.8 mph - N/A   Overcast
1:10 PM 41.0 °F 35.2 °F 28.4 °F 61% 30.20 in 10.0 mi South 9.2 mph - N/A   Overcast
1:30 PM 40.3 °F 35.5 °F 28.4 °F 63% 30.18 in 10.0 mi SSW 6.9 mph - N/A   Overcast
1:50 PM 40.1 °F 36.1 °F 28.8 °F 64% 30.18 in 10.0 mi South 5.8 mph - N/A   Overcast
2:10 PM 39.2 °F 37.0 °F 28.4 °F 65% 30.16 in 10.0 mi South 3.5 mph - N/A   Overcast
2:30 PM 40.3 °F 37.1 °F 28.4 °F 63% 30.16 in 10.0 mi SSW 4.6 mph - N/A   Overcast
2:50 PM 40.3 °F 37.1 °F 28.6 °F 63% 30.15 in 10.0 mi SSE 4.6 mph - N/A   Overcast
3:10 PM 40.6 °F 37.5 °F 28.9 °F 63% 30.15 in 10.0 mi SE 4.6 mph - N/A   Overcast
3:30 PM 40.1 °F 36.9 °F 28.4 °F 63% 30.14 in 10.0 mi South 4.6 mph - N/A   Overcast
3:50 PM 40.1 °F 36.1 °F 28.9 °F 64% 30.14 in 10.0 mi SSE 5.8 mph - N/A   Overcast
4:10 PM 39.9 °F 36.7 °F 29.3 °F 66% 30.13 in 10.0 mi South 4.6 mph - N/A   Overcast
4:30 PM 39.7 °F - 29.1 °F 66% 30.13 in 10.0 mi Calm Calm - N/A   Overcast
4:50 PM 39.6 °F - 28.9 °F 66% 30.13 in 10.0 mi Calm Calm - N/A   Overcast
5:10 PM 39.2 °F - 28.9 °F 67% 30.12 in 10.0 mi Calm Calm - N/A   Overcast
5:30 PM 39.2 °F - 28.9 °F 67% 30.13 in 10.0 mi Calm Calm - N/A   Overcast
5:50 PM 39.2 °F - 28.8 °F 66% 30.13 in 10.0 mi Calm Calm - N/A   Overcast
6:10 PM 39.0 °F - 28.4 °F 66% 30.13 in 10.0 mi Calm Calm - N/A   Overcast
6:30 PM 39.0 °F - 28.0 °F 65% 30.13 in 10.0 mi Calm Calm - N/A   Overcast
6:50 PM 38.7 °F 36.3 °F 28.0 °F 66% 30.12 in 10.0 mi ESE 3.5 mph - N/A   Overcast
7:10 PM 38.7 °F - 27.5 °F 64% 30.12 in 10.0 mi Calm Calm - N/A   Overcast
7:50 PM 38.5 °F - 27.1 °F 64% 30.11 in 10.0 mi Calm Calm - N/A   Overcast
8:10 PM 38.3 °F - 27.0 °F 64% 30.10 in 10.0 mi Calm Calm - N/A   Overcast
8:30 PM 38.1 °F - 27.5 °F 66% 30.10 in 10.0 mi Calm Calm - N/A   Overcast
8:50 PM 37.9 °F - 27.7 °F 67% 30.10 in 10.0 mi Calm Calm - N/A   Overcast
9:30 PM 37.8 °F - 27.1 °F 66% 30.08 in 10.0 mi Calm Calm - N/A   Overcast
9:50 PM 37.6 °F - 27.1 °F 66% 30.08 in 10.0 mi Calm Calm - N/A   Overcast
10:10 PM 37.4 °F - 27.3 °F 67% 30.07 in 10.0 mi Calm Calm - N/A   Overcast
10:30 PM 37.4 °F - 27.1 °F 66% 30.06 in 10.0 mi Calm Calm - N/A   Overcast
10:50 PM 37.2 °F - 27.7 °F 68% 30.05 in 10.0 mi Calm Calm - N/A   Overcast
11:10 PM 37.2 °F - 27.5 °F 68% 30.05 in 10.0 mi Calm Calm - N/A   Overcast
11:30 PM 37.0 °F - 27.3 °F 68% 30.04 in 10.0 mi Calm Calm - N/A   Overcast
11:50 PM 37.0 °F - 26.8 °F 66% 30.03 in 10.0 mi Calm Calm - N/A   Overcast